This demonstration page uses our WeatherBlox Daily Observations layout. Learn more.

Left ArrowRight Arrow

Hourly Observations for April 11, 2020

Temp ( °F °C ) Dew Point ( °F °C ) Humidity (%) Winds ( mph kmh ) Pressure ( in mb ) Visibility ( mi km ) Precip ( " mm )
12:51 am 00:51 Clear 50 10 24 -4.4 36 36 NNW 5 7 29.78 1009 10 16.0934 0 0
1:51 am 01:51 Clear 47 8.3 25 -3.9 42 42 E 6 9 29.78 1009 10 16.0934 0 0
2:51 am 02:51 Clear 45 7.2 25 -3.9 46 46 ESE 6 9 29.78 1008 10 16.0934 0 0
3:51 am 03:51 Clear 46 7.8 25 -3.9 44 44 S 5 7 29.78 1008 10 16.0934 0 0
4:51 am 04:51 Clear 41 5 23 -5 49 49 Calm 29.79 1009 10 16.0934 0 0
5:51 am 05:51 Clear 37 2.8 22 -5.6 54 54 Calm 29.8 1009 10 16.0934 0 0
6:51 am 06:51 Sunny 48 8.9 26 -3.3 42 42 Calm 29.8 1009 10 16.0934 0 0
7:51 am 07:51 Sunny 53 11.7 27 -2.8 37 37 SSE 5 7 29.82 1010 10 16.0934 0 0
8:51 am 08:51 Sunny 60 15.6 30 -1.1 32 32 NW 7 11 29.82 1010 10 16.0934 0 0
9:51 am 09:51 Sunny 65 18.3 32 0 29 29 WNW 7 11 29.8 1009 10 16.0934 0 0
10:51 am 10:51 Mostly Sunny 65 18.3 32 0 29 29 W 8 13 29.79 1009 10 16.0934 0 0
11:51 am 11:51 Partly Cloudy 68 20 31 -0.6 25 25 W 10 17 29.77 1008 10 16.0934 0 0
12:51 pm 12:51 Mostly Cloudy 69 20.6 31 -0.6 24 24 W 17 28 29.75 1007 10 16.0934 0 0
1:51 pm 13:51 Mostly Cloudy 68 20 31 -0.6 25 25 WNW 23 37 29.75 1007 10 16.0934 0 0
2:51 pm 14:51 Partly Cloudy 68 20 31 -0.6 25 25 VRB 3 6 29.73 1007 10 16.0934 0 0
3:49 pm 15:49 Mostly Cloudy with Light Rain 61 16 37 3 42 42 NNW 10 17 29.72 1007 10 16.0934 0.001 0.001
3:51 pm 15:51 Mostly Cloudy with Light Rain 61 16.1 37 2.8 41 41 N 12 19 29.74 1007 10 16.0934 0.001 0.001
4:51 pm 16:51 Mostly Cloudy 59 15 36 2.2 42 42 WNW 24 39 29.77 1008 10 16.0934 0.001 0.001
5:51 pm 17:51 Cloudy 57 13.9 37 2.8 47 47 NNW 23 37 29.8 1009 10 16.0934 0 0
6:51 pm 18:51 Mostly Cloudy 55 12.8 39 3.9 55 55 NW 14 22 29.79 1009 10 16.0934 0 0
7:51 pm 19:51 Clear 53 11.7 40 4.4 61 61 NW 12 19 29.8 1009 10 16.0934 0 0
8:51 pm 20:51 Clear 53 11.7 39 3.9 59 59 WNW 8 13 29.81 1010 10 16.0934 0 0
9:51 pm 21:51 Clear 51 10.6 41 5 69 69 NW 15 24 29.82 1010 10 16.0934 0 0
10:51 pm 22:51 Clear 50 10 39 3.9 66 66 WNW 15 24 29.82 1010 10 16.0934 0 0
11:51 pm 23:51 Clear 48 8.9 39 3.9 71 71 NW 12 19 29.81 1010 10 16.0934 0 0

Powered by AerisWeather